Anoka County, MN

3:37 AM CST on November 20, 2017 (GMT -0600)
Anoka County / Blaine Airport

Weather History for KANE - August, 2013

Change the Weather History Date:

Thursday, August 8, 2013

  Actual Average Record
Temperature  
Mean Temperature 65 °F -  
Max Temperature 77 °F 77 °F 95 °F (2001)
Min Temperature 53 °F 57 °F 53 °F (1999)
Growing Degree Days 15 (Base 50)    
Moisture  
Dew Point 56 °F    
Average Humidity 79    
Maximum Humidity 94    
Minimum Humidity 47    
Precipitation  
Precipitation 0.00 in - - ()
Sea Level Pressure  
Sea Level Pressure 30.02 in    
Wind  
Wind Speed 2 mph (SW)    
Max Wind Speed 12 mph    
Max Gust Speed 17 mph    
Visibility 10 miles    
Events      
Averages and records for this station are not official NWS values.
T = Trace of Precipitation, MM = Missing Value Source: NWS Daily Summary

Daily Weather History Graph

Daily Weather History Graph

Search for Another Location

Airport or City:

Trip Planner

Search our weather history database for the weather conditions in past years. The results will help you decide how hot, cold, wet, or windy it might be!

Date:

Astronomy

Aug. 08, 2013 Rise Set
Actual Time 6:06 AM CDT 8:29 PM CDT
Civil Twilight 5:33 AM CDT 9:02 PM CDT
Nautical Twilight 4:52 AM CDT 9:43 PM CDT
Astronomical Twilight 4:05 AM CDT 10:29 PM CDT
Moon 8:01 AM CDT (8/8) 8:59 PM CDT (8/8)
Length of Visible Light 15h 29m
Length of Day
14h 23m
Waxing Crescent, 3% of the Moon is Illuminated
Aug 8
Waxing Crescent
Aug 14
First Quarter
Aug 20
Full
Aug 28
Last Quarter
Sep 5
New

Hourly Weather History & Observations

Time (CDT) Temp. Dew Point Humidity Pressure Visibility Wind Dir Wind Speed Gust Speed Precip Events Conditions
12:13 AM 57.2 °F 53.6 °F 88% 30.03 in 10.0 mi Calm Calm - N/A   Clear
12:34 AM 57.2 °F 53.6 °F 88% 30.04 in 10.0 mi Calm Calm - N/A   Clear
12:54 AM 57.2 °F 53.6 °F 88% 30.04 in 10.0 mi Calm Calm - N/A   Clear
1:13 AM 57.2 °F 53.6 °F 88% 30.04 in 10.0 mi Calm Calm - N/A   Clear
1:34 AM 55.4 °F 53.6 °F 94% 30.03 in 10.0 mi Calm Calm - N/A   Clear
1:54 AM 57.2 °F 53.6 °F 88% 30.04 in 10.0 mi Calm Calm - N/A   Clear
2:13 AM 55.4 °F 51.8 °F 88% 30.03 in 10.0 mi Calm Calm - N/A   Clear
2:34 AM 57.2 °F 53.6 °F 88% 30.04 in 10.0 mi Calm Calm - N/A   Clear
2:54 AM 55.4 °F 53.6 °F 94% 30.04 in 10.0 mi Calm Calm - N/A   Clear
3:13 AM 53.6 °F 51.8 °F 94% 30.03 in 10.0 mi Calm Calm - N/A   Clear
3:34 AM 55.4 °F 51.8 °F 88% 30.03 in 10.0 mi Calm Calm - N/A   Scattered Clouds
3:54 AM 55.4 °F 53.6 °F 94% 30.03 in 10.0 mi Calm Calm - N/A   Overcast
4:13 AM 57.2 °F 53.6 °F 88% 30.03 in 10.0 mi Calm Calm - N/A   Mostly Cloudy
4:34 AM 55.4 °F 53.6 °F 94% 30.02 in 10.0 mi Calm Calm - N/A   Clear
4:54 AM 55.4 °F 53.6 °F 94% 30.01 in 10.0 mi East 3.5 mph - N/A   Clear
5:13 AM 55.4 °F 53.6 °F 94% 30.00 in 10.0 mi Calm Calm - N/A   Clear
5:34 AM 57.2 °F 53.6 °F 88% 30.01 in 10.0 mi Calm Calm - N/A   Clear
5:54 AM 55.4 °F 53.6 °F 94% 30.01 in 10.0 mi Calm Calm - N/A   Clear
6:13 AM 55.4 °F 53.6 °F 94% 30.01 in 10.0 mi Calm Calm - N/A   Clear
6:34 AM 55.4 °F 53.6 °F 94% 30.01 in 10.0 mi East 3.5 mph - N/A   Clear
6:45 AM 57.2 °F 55.4 °F 94% 30.01 in 10.0 mi Calm Calm - N/A   Scattered Clouds
6:54 AM 57.2 °F 55.4 °F 94% 30.01 in 10.0 mi Calm Calm - N/A   Clear
7:45 AM 60.8 °F 57.2 °F 88% 30.03 in 10.0 mi Calm Calm - N/A   Mostly Cloudy
8:48 AM 64.4 °F 59.0 °F 83% 30.05 in 10.0 mi Calm Calm - N/A   Mostly Cloudy
9:50 AM 68.0 °F 59.0 °F 73% 30.05 in 10.0 mi SW 5.8 mph - N/A   Mostly Cloudy
10:50 AM 71.6 °F 55.4 °F 57% 30.05 in 10.0 mi WSW 9.2 mph - N/A   Mostly Cloudy
11:55 AM 73.4 °F 55.4 °F 53% 30.05 in 10.0 mi WSW 4.6 mph - N/A   Mostly Cloudy
12:45 PM 73.4 °F 53.6 °F 50% 30.04 in 10.0 mi WSW 4.6 mph - N/A   Scattered Clouds
2:50 PM 75.2 °F 55.4 °F 50% 30.03 in 10.0 mi SW 6.9 mph 16.1 mph N/A   Scattered Clouds
3:55 PM 77.0 °F 55.4 °F 47% 30.01 in 10.0 mi WSW 11.5 mph 17.3 mph N/A   Scattered Clouds
4:45 PM 75.2 °F 55.4 °F 50% 30.00 in 10.0 mi SSW 9.2 mph - N/A   Mostly Cloudy
5:55 PM 73.4 °F 57.2 °F 57% 30.01 in 10.0 mi WSW 6.9 mph - N/A   Mostly Cloudy
6:45 PM 75.2 °F 59.0 °F 57% 29.99 in 10.0 mi SW 4.6 mph - N/A   Mostly Cloudy
7:50 PM 73.4 °F 57.2 °F 57% 29.99 in 10.0 mi WSW 4.6 mph - N/A   Mostly Cloudy
8:45 PM 69.8 °F 59.0 °F 68% 29.99 in 10.0 mi WSW 3.5 mph - N/A   Mostly Cloudy
9:14 PM 66.2 °F 59.0 °F 78% 30.00 in 10.0 mi Calm Calm - N/A   Scattered Clouds
9:34 PM 69.8 °F 60.8 °F 73% 30.00 in 10.0 mi SW 3.5 mph - N/A   Mostly Cloudy
9:45 PM 69.8 °F 60.8 °F 73% 30.01 in 10.0 mi SW 3.5 mph - N/A   Scattered Clouds
9:53 PM 69.8 °F 60.8 °F 73% 30.00 in 10.0 mi SW 4.6 mph - N/A   Mostly Cloudy
10:14 PM 69.8 °F 60.8 °F 73% 30.00 in 10.0 mi SW 5.8 mph - N/A   Overcast
10:34 PM 69.8 °F 60.8 °F 73% 30.00 in 10.0 mi SW 3.5 mph - N/A   Overcast
10:53 PM 68.0 °F 60.8 °F 78% 30.00 in 10.0 mi SW 4.6 mph - N/A   Overcast
11:14 PM 68.0 °F 62.6 °F 83% 30.00 in 10.0 mi SW 3.5 mph - N/A   Mostly Cloudy
11:34 PM 66.2 °F 60.8 °F 83% 30.00 in 10.0 mi WSW 4.6 mph - N/A   Scattered Clouds
11:53 PM 66.2 °F 60.8 °F 83% 30.00 in 10.0 mi SW 3.5 mph - N/A   Clear